Regional Weather Roundup
Issued by NWS Grand Forks, ND

Home | Current Version | Previous Version | Graphics & Text | Print | Product List | Glossary On
Versions: 1 2 3 4 5 6 7 8 9 10 11 12 13 14 15 16 17 18 19 20 21 22 23 24 25 26 27 28 29 30 31 32 33 34 35 36 37 38 39 40 41 42 43 44 45 46 47 48 49 50
000
ASUS43 KFGF 091610
RWRFGF
PRAIRIE TO PINES  WEATHER ROUNDUP
NATIONAL WEATHER SERVICE EASTERN NORTH DAKOTA/GRAND FORKS ND
1000 AM CST FRI DEC 09 2016

 **SATELLITE DATA USED TO AUGMENT SKY COVER AT AUTOMATED STATIONS**
 *****  WEATHER ACROSS EASTERN NORTH DAKOTA  *****

CITY           SKY/WX    TMP DP  RH WIND       PRES   REMARKS
GRAND FORKS    CLOUDY     5  -2  72 NW10      30.58R WCI -10
GRAND FRKS AFB CLOUDY     2  -5  71 NW9       30.59R WCI -12
DEVILS LAKE    PTSUNNY   -9 -13  83 W7        30.56R WCI -24
FARGO          CLOUDY     6  -1  73 NW8       30.59R WCI  -7
WAHPETON ARPT  CLOUDY     3  -2  78 W7        30.60R WCI  -9
$$

 ***** WEATHER ACROSS CENTRAL AND WESTERN NORTH DAKOTA  *****

CITY           SKY/WX    TMP DP  RH WIND       PRES   REMARKS
BISMARCK       CLOUDY   -13 -18  78 CALM      30.57S
MINOT          CLOUDY    -9 -14  78 W13       30.55S WCI -29
JAMESTOWN      SUNNY     -7 -11  83 NW9       30.55S WCI -24
MINOT AFB      CLOUDY   -14 -20  77 NW13      30.56R WCI -36
GARRISON         N/A    -12 -16  82 N3        30.53S
WILLISTON      CLOUDY   -11 -14  86 CALM      30.58R
DICKINSON      CLOUDY   -18 -19  96 W3        30.45R FOG
HETTINGER      CLOUDY    -8 -11  86 CALM      30.45R FOG
$$

 *****  OTHER AIRPORT OBSERVATIONS IN OUR AREA  *****

CITY           SKY/WX    TMP DP  RH WIND       PRES   REMARKS
WALHALLA         N/A     -4  -4 100 W7        30.59R WCI -18
GRAFTON AIRPOR CLOUDY     3  -2  78 NW9       30.61R WCI -11
VALLEY CITY AR FAIR      -4  -8  84 NW8       30.58R WCI -19
CANDO          FAIR      -9 -13  84 NW9       30.58R WCI -27
CAVALIER APRT    N/A     -2  -8  78 NW8       30.59R WCI -17
GWINNER        FAIR       1  -4  78 W7        30.58R WCI -11
SHEYENNE NWR     N/A      1  -6  70 NW7       29.95S WCI -12
ROLLA          FAIR     -11 -17  77 NW10      30.51R WCI -30
 ***** THE ABOVE OBSERVATIONS ARE NON NWS ARE NOT QUALITY
       CONTROLLED AND MAY MIS-REPORT RAIN FOR SNOW...
$$

  *****  WEATHER ACROSS NORTHERN MINNESOTA  *****

CITY           SKY/WX    TMP DP  RH WIND       PRES   REMARKS
FLAG ISLAND    CLOUDY     1  -2  85 W13       30.50S WCI -16
WARROAD        MOSUNNY    1  -4  78 W7        30.53R WCI -11
ROSEAU         CLOUDY     3  -2  78 NW8       30.54R HAZE    WCI -10
HALLOCK        CLOUDY     3  -2  78 N6        30.58R WCI  -8
THF RVR FALLS  FLURRIES   7   3  84 NW8       30.54R WCI  -6
BAUDETTE       CLOUDY     2  -5  72 NW12      30.50R HAZE    WCI -15
WASKISH        CLOUDY     7   0  72 NW6       30.50S WCI  -3
CROOKSTON      CLOUDY     5   1  85 NW8       30.58R WCI  -8
GREENBUSH NDAW   N/A      1   0  92 N6          N/A  WCI -10
$$
  *****  WEATHER ACROSS CENTRAL AND WEST MINNESOTA  *****

CITY           SKY/WX    TMP DP  RH WIND       PRES   REMARKS
FOSSTON        LGT SNOW   7   1  78 CALM      30.51S
BEMIDJI        LGT SNOW   5   0  82 W5        30.49S WCI  -4
PARK RAPIDS    CLOUDY     7   0  73 W5        30.49S WCI  -2
ELBOW LAKE     CLOUDY     2  -1  84 SW8       30.57R FOG     WCI -11
WADENA         LGT SNOW   7   3  85 W5        30.51S WCI  -2
DETROIT LAKES  LGT SNOW   9   3  78 W7        30.52R WCI  -3
MOORHEAD       CLOUDY     5   0  78 NW8       30.59R WCI  -8
FERGUS FALLS   CLOUDY     3   0  85 W6        30.62R HAZE    WCI  -8
MORRIS MN      CLOUDY     3   0  85 W8        30.58R WCI -10
STAPLES        CLOUDY     9   1  72 NW7       30.51S WCI  -3
$$
  *****  WEATHER ELSEWHERE ACROSS MINNESOTA  *****

CITY           SKY/WX    TMP DP  RH WIND       PRES   REMARKS
DULUTH         PTSUNNY   10   3  73 NW12      30.46R WCI  -5
INTRNTL FALLS  CLOUDY     5  -1  76 W8        30.48S HAZE    WCI  -8
ELY            CLOUDY     9   1  72 W9G16     30.43R WCI  -5
CLOQUET        CLOUDY    10   1  67 NW8       30.48R WCI  -1
WHEATON        SUNNY      3  -2  78 W7        30.62R WCI  -9
BRAINERD       CLOUDY    10   4  76 NW9       30.51R WCI  -3
HIBBING        LGT SNOW   5  -1  76 NW14      30.48R WCI -12
ALEXANDRIA     NOT AVBL
SAINT CLOUD    CLOUDY    10   6  84 NW7       30.55R WCI  -1
MINNEAPOLIS    LGT SNOW  13   8  81 SW8       30.56S FOG     WCI   2
$$

  *****  WEATHER ACROSS SOUTH DAKOTA  *****

CITY           SKY/WX    TMP DP  RH WIND       PRES   REMARKS
SIOUX FALLS    CLOUDY     6   1  80 W3        30.57S
BROOKINGS      MOSUNNY    1  -4  79 NW8       30.55R WCI -13
WATERTOWN      CLOUDY    -1  -5  82 W9        30.53R WCI -16
HURON          CLOUDY     2  -3  80 N6        30.60R WCI  -9
SISSETON         N/A      3  -4  72 NW10      30.58R WCI -12
ABERDEEN       PTSUNNY    1  -8  66 MISG      30.60R
MITCHELL       CLOUDY     4  -2  76 NE6       30.61R WCI  -7
PIERRE         CLOUDY     2  -3  80 E9        30.50F WCI -13
MOBRIDGE       CLOUDY    -1  -8  72 NW7       30.51F WCI -14
RAPID CITY     FLURRIES   0  -5  79 N12       30.33S WCI -17
$$

  *****  SOME WEATHER IN NEARBY STATES *****

CITY           SKY/WX    TMP DP  RH WIND       PRES   REMARKS
GLASGOW MT     CLOUDY    -5  -9  83 E12       30.51S WCI -23
GREAT FALLS MT LGT SNOW  -2  -7  79 NE5       30.28S WCI -12
CHEYENNE WY    SUNNY     39  24  55 W17G29    30.03R
SCOTTSBLUFF NE CLOUDY    19   9  65 NE7       30.16R WCI  10
OMAHA NE       PTSUNNY   12   6  77 CALM      30.65R
DES MOINES IA  CLOUDY    16   7  67 CALM      30.62F
DAVENPORT IA   SUNNY     19  12  74 W9        30.61R WCI   8
CHICAGO IL     FLURRIES  24  17  74 W12       30.53R WCI  13
EAU CLAIRE WI  CLOUDY    16  12  84 W5        30.54R WCI   9
LA CROSSE WI   SUNNY     22  11  62 N9        30.57S WCI  12
$$

  *****  SOME NATIONAL WEATHER *****

CITY           SKY/WX    TMP DP  RH WIND       PRES   REMARKS
LA GUARDIA NY  PTSUNNY   39  20  46 NW18G28   30.11S
RALEIGH NC     SUNNY     37  14  38 NW9G17    30.42R
ATLANTA GA     SUNNY     35  17  47 NW10      30.49R
NEW ORLEANS LA MOSUNNY   42  26  53 N14G20    30.56R
OKLAHOMA CITY  CLOUDY    25  13  60 SE8       30.62R WCI  16
ALBUQUERQUE NM MOSUNNY   28  20  71 CALM      30.40R
SALT LAKE CITY CLOUDY    33  29  85 W5        30.20R
LOS ANGELES CA PTSUNNY   56  50  80 VRB3      30.26R
BOISE ID       CLOUDY    27  23  85 CALM      30.15S
SEATTLE WA     LGT RAIN  34  31  88 E10       29.97R
$$

*** WEATHER ACROSS MANITOBA...SASKATCHEWAN AND ONTARIO ***
                ***ONTARIO***

CITY           SKY/WX    TMP DP  RH WIND       PRES   REMARKS
GERALDTON      FLURRIES   9   3  78 NW6       30.34S WCI  -1
THUNDER BAY    CLOUDY    14   5  67 N6        30.45R WCI   5
SIOUX LOOKOUT  NOT AVBL
TORONTO        MOSUNNY   27  16  63 W9        30.25R WCI  17
BIG TROUT LK   FLURRIES   0  -6  78 NW9       30.42R WCI -16
PICKLE LAKE    FLURRIES   1  -2  85 NW5       30.36S WCI  -8
DRYDEN         CLOUDY     5   1  85 N6        30.41R WCI  -6
KENORA         FLURRIES   3  -2  78 W7        30.45R WCI  -9
$$
                *** MANITOBA***

CITY           SKY/WX    TMP DP  RH WIND       PRES   REMARKS
BRANDON        FLURRIES  -9 -15  77 W9        30.56R WCI -27
DAUPHIN        CLOUDY    -6 -13  71 NW8       30.61R WCI -21
ISLAND LAKE    FLURRIES -11 -17  77 N8        30.52R WCI -28
PILOT MOUND      N/A    -15 -20  76 NW6         N/A  WCI -29
THE PAS        FLURRIES  -8 -13  77 NW13      30.62S WCI -28
THOMPSON       FLURRIES -17 -20  83 W3        30.59S
WINNIPEG       FLURRIES   1  -6  71 W15       30.57S WCI -18
LYNN LAKE      CLOUDY   -13 -17  84 NW3       30.59S
CHURCHILL      FLURRIES  -4  -9  77 NW22G28   30.51S WCI -28
GILLAM         FLURRIES  -9 -15  77 NW7       30.54S WCI -24
$$
                ***SASKATCHEWAN***

CITY           SKY/WX    TMP DP  RH WIND       PRES   REMARKS
ESTEVAN        PTCLDY   -22 -27  76 W7        30.56R WCI -39
KINDERSLEY     CLOUDY   -11 -17  77 E2        30.52R
LLOYDMINSTER   CRYSTALS -17 -22  76 S2        30.53S
PRINCE ALBERT  CRYSTALS -17 -22  76 W3        30.63F
REGINA         CLEAR    -15 -20  76 NW2       30.57R
YORKTON        CLEAR    -13 -18  77 NW8       30.57R WCI -30
N. BATTLEFORD  CLEAR    -20 -26  76 N3        30.62S
LA RONGE       CLEAR    -22 -27  76 W3        30.66R
SASKATOON      PTCLDY   -13 -18  77 N5        30.62S WCI -25
SWIFT CURRENT  CLOUDY    -8 -11  84 CALM      30.46R
$$
NOTE: THESE ARE AUTOMATED STATIONS WITH LIMITED QUALITY CONTROL
      "FAIR" INDICATES FEW OR NO CLOUDS BELOW 12,000 FEET WITH NO
      SIGNIFICANT WEATHER AND/OR OBSTRUCTIONS TO VISIBILITY.
      SKY/WX - SKY CONDITION AND SIGNIFICANT WEATHER.
      TMP - AIR TEMPERATURE.    DP   - DEWPOINT TEMPERATURE.
      RH  - RELATIVE HUMIDITY.  PRES - PRESSURE.
      HX  - HEAT INDEX.         WCI  - WIND CHILL INDEX.
$




USA.gov is the U.S. government's official web portal to all federal, state and local government web resources and services.